Location: Cormont
(50.5693°N, 1.7416°E)
Time: 23:45:41
(UTC+00:00)

STARLINK-55 - Pass Details

Date: 21 October 2019
Orbit: 548 x 551 km, 53.0° (Epoch: 22 November)

Event Time Altitude Azimuth Distance (km) Brightness Sun altitude
Rises 17:38:28 0° 268° (W) 2,714 9.6 -8.4°
Reaches altitude 10° 17:40:43 10° 271° (W) 1,822 7.9 -8.8°
Maximum altitude 17:44:50 63° 353° (N) 616 3.9 -9.4°
Enters shadow 17:48:24 13° 74° (ENE) 1,610 5.4 -10.0°
